Theta_e
294 296 297 297 296 297 298 297 295 295 296 300 302 307 309 310 309 309 309 310 312 309 310 311 312 314 316 315 314 316 315 314 319 320 321 321 324 323 323 323 324 327 327 328
292 296 296 294 297 298 300 299 297 299 297 304 306 309 310 310 310 309 310 311 312 312 310 310 313 315 316 315 313 317 316 314 319 319 320 321 322 323 322 318 321 324 326 327
288 294 294 290 295 297 300 302 299 295 298 303 303 304 309 309 310 310 311 312 312 312 311 312 312 316 315 315 312 317 316 316 319 319 320 322 320 322 317 315 315 315 316 318
288 290 284 295 301 302 301 302 304 300 301 305 306 308 308 312 311 312 312 313 314 314 312 312 313 315 316 314 311 316 316 317 317 317 319 320 319 318 317 314 314 313 312 312
286 288 291 295 300 299 298 297 303 303 302 304 305 306 304 314 314 314 313 314 315 316 314 313 313 314 316 312 310 315 316 316 317 316 318 319 319 317 316 314 313 312 311 311
289 284 284 293 303 305 304 295 303 304 303 303 303 300 302 310 315 315 315 316 316 316 314 313 314 315 315 311 310 312 314 316 317 316 317 317 318 317 317 315 314 314 312 311
287 287 291 299 304 306 294 296 303 305 304 302 302 305 307 308 315 316 316 315 316 316 314 314 315 316 314 312 310 312 314 315 315 314 315 315 318 317 318 316 316 313 311 309
290 288 286 304 303 297 300 302 306 305 304 304 305 306 307 309 314 315 315 315 316 316 314 314 316 316 315 312 313 313 314 313 313 313 317 317 318 317 317 317 314 314 311 308
292 291 300 303 301 303 308 304 306 306 306 308 306 308 309 310 312 315 316 316 318 317 314 314 316 316 314 315 314 313 313 311 311 313 315 318 319 317 316 316 315 313 314 311
293 298 297 301 302 303 308 309 311 308 310 308 308 308 308 310 312 316 317 316 318 317 314 313 315 316 316 316 317 314 311 311 310 312 313 318 320 320 318 316 315 314 314 313
294 297 298 301 301 302 302 309 313 313 310 310 309 308 309 309 313 316 318 318 318 317 315 314 315 315 316 318 318 315 312 312 311 312 315 317 319 320 320 319 318 315 314 314
291 298 296 298 301 303 302 302 311 313 312 314 313 308 309 310 314 316 318 318 318 318 317 316 316 315 317 319 318 315 313 313 311 311 314 317 318 312 297 305 303 304 303 309
297 302 300 300 303 304 302 303 309 313 314 313 315 315 314 308 314 316 319 319 319 319 318 317 316 316 318 319 318 316 315 314 311 311 314 315 316 316 312 303 298 299 299 300
303 303 298 300 300 303 304 304 306 313 315 316 316 317 315 315 313 317 319 321 321 321 320 319 318 317 319 320 318 317 316 307 313 314 314 315 315 315 316 313 310 306 297 298
301 303 302 302 303 302 304 304 305 309 313 313 315 316 316 315 314 318 321 322 322 322 322 321 319 319 320 320 318 317 316 316 315 314 315 314 315 315 315 313 312 306 302 296
299 302 302 300 301 301 302 302 302 305 310 311 311 313 315 316 317 318 320 323 321 321 322 322 321 322 322 320 319 318 318 309 312 315 314 315 315 315 314 313 310 310 307 306
294 295 300 300 301 302 303 303 302 304 308 309 309 313 316 316 316 317 318 321 323 323 324 324 323 325 324 322 320 319 319 313 306 316 315 314 315 314 314 313 312 310 310 306
298 298 300 303 302 303 303 303 304 305 307 310 311 314 315 316 317 317 315 317 319 319 320 324 324 325 326 324 321 321 320 317 315 316 317 316 314 315 314 313 312 311 310 305
298 299 301 302 304 304 305 303 304 309 310 310 311 312 317 319 319 318 319 321 320 319 319 321 307 317 324 321 318 322 321 318 316 317 316 307 310 315 314 313 312 311 311 309
299 301 302 305 303 305 305 304 306 306 308 309 310 311 314 316 318 318 318 319 320 321 322 320 323 321 318 312 307 323 321 320 317 317 316 314 313 314 315 305 313 311 310 310
299 301 302 305 301 305 306 306 305 305 306 308 309 313 318 317 316 317 318 318 321 318 320 312 321 320 319 313 313 317 320 320 318 317 316 314 314 313 313 312 312 312 311 310
301 301 302 304 301 303 305 306 306 308 308 309 315 318 318 318 319 320 317 318 316 296 316 314 309 296 305 301 318 316 315 319 319 318 317 316 315 314 314 313 311 312 310 308
301 302 304 305 304 305 308 309 311 310 309 311 316 315 315 314 312 314 314 312 312 301 310 308 294 292 295 312 313 316 317 315 316 318 317 317 317 316 316 315 315 312 308 305
302 302 303 306 305 304 303 307 311 313 312 315 316 317 315 313 313 313 310 296 294 302 305 298 296 293 297 312 314 314 315 315 315 315 316 304 314 314 314 312 310 308 306 304
304 304 303 302 301 301 304 305 308 309 313 313 314 315 315 315 314 314 313 310 295 307 313 298 298 297 315 314 313 313 314 313 312 312 311 310 309 309 308 310 308 306 306 304
303 304 304 304 304 305 305 305 306 306 307 310 312 314 314 315 314 314 314 309 313 304 312 311 309 312 312 312 312 311 312 312 312 310 309 308 306 304 303 302 301 300 300 300
303 300 304 303 306 307 305 303 305 305 306 310 311 311 314 313 309 308 302 310 310 309 309 308 309 305 308 309 310 311 311 309 304 311 310 306 304 303 302 301 301 299 299 298
Wind_Speed
29 18 4 6 18 21 17 14 15 8 11 9 12 15 18 17 13 14 14 15 16 14 12 11 10 10 8 7 8 7 7 7 7 5 5 5 5 5 5 3 3 5 5 5
21 29 26 16 9 24 21 10 9 13 7 10 15 15 13 17 18 18 18 17 17 16 15 14 14 13 11 8 10 10 8 7 6 6 5 5 4 5 5 6 6 5 5 5
21 20 20 20 23 10 16 19 13 9 9 9 6 11 20 17 20 21 20 19 18 19 17 15 15 15 12 9 9 12 9 7 7 6 5 4 5 6 6 6 6 6 5 6
7 6 11 13 12 14 15 18 17 7 10 15 12 15 13 18 22 20 19 19 18 16 15 15 13 14 11 10 11 12 11 9 7 7 6 6 6 7 6 5 6 6 6 5
3 14 6 11 9 13 9 10 12 17 10 12 9 7 4 19 21 23 21 20 18 18 18 14 15 14 14 12 12 12 12 10 9 7 7 6 7 7 6 6 5 4 5 6
4 7 14 6 6 9 8 10 10 12 13 11 8 8 6 17 18 18 20 18 16 16 14 15 14 15 16 14 14 13 13 12 10 9 9 7 7 6 4 5 6 5 5 5
5 5 6 6 7 6 14 11 6 13 12 9 10 9 10 13 18 19 19 19 15 16 18 18 15 16 16 16 16 14 13 12 10 9 10 9 8 5 6 5 6 5 6 4
4 5 2 19 6 5 6 5 10 11 9 11 9 8 8 13 17 17 18 15 17 16 15 15 17 17 16 17 16 13 13 13 12 10 9 7 10 6 7 7 7 6 5 3
5 3 12 6 11 8 9 6 4 13 8 14 11 10 10 10 14 16 18 18 17 17 15 14 17 18 18 15 15 14 12 13 12 11 10 9 10 8 5 6 6 5 5 4
12 2 20 13 22 21 20 13 14 7 12 11 14 10 10 9 9 14 15 17 16 15 15 15 16 17 17 15 16 15 13 12 11 11 8 9 8 8 7 6 5 6 5 6
10 11 20 7 22 19 22 18 17 16 3 14 12 10 11 8 12 14 16 15 16 16 16 18 17 15 13 15 16 14 12 11 12 11 12 10 9 10 10 8 9 7 6 8
4 12 7 14 19 18 21 21 15 11 13 9 12 5 9 10 12 14 14 15 15 15 16 16 17 15 14 16 16 15 12 10 10 10 9 9 9 4 8 3 12 12 13 9
6 9 13 15 12 14 16 20 18 9 8 7 14 12 12 3 10 16 18 19 18 18 17 16 17 16 15 16 16 15 14 11 10 10 10 10 9 9 8 2 3 9 13 14
8 6 13 5 12 16 16 20 21 9 6 10 13 9 11 15 5 16 18 19 18 16 16 17 17 17 17 17 16 14 12 16 12 11 11 10 10 10 9 9 8 4 3 5
7 11 12 9 14 17 13 15 19 14 13 16 17 13 14 14 16 13 16 16 17 17 16 16 17 16 16 17 16 14 11 11 11 11 11 11 10 9 8 8 8 5 3 2
15 10 7 7 12 16 14 13 15 15 10 13 14 17 16 18 17 15 15 16 17 14 16 16 16 16 16 17 16 12 12 15 13 11 10 11 9 10 9 9 8 8 7 7
10 4 6 4 8 9 17 7 9 11 11 10 14 13 19 25 29 18 11 15 16 16 16 16 16 14 17 17 17 12 10 9 12 10 11 11 11 11 10 10 9 9 10 9
13 13 13 8 6 11 12 5 11 10 10 6 10 9 13 3 23 11 2 9 8 7 9 13 12 14 16 16 16 12 11 11 11 12 10 11 11 11 11 10 10 10 8 7
15 13 12 11 9 12 10 3 11 5 4 7 10 9 5 7 9 9 9 5 11 11 4 4 11 13 14 15 14 11 10 11 12 11 11 11 9 11 11 11 10 10 9 9
16 14 12 12 11 14 14 8 8 3 3 6 7 8 8 10 9 9 7 6 3 3 8 7 9 8 7 8 13 10 10 12 12 12 10 9 10 11 10 11 12 11 10 10
13 11 11 11 9 15 14 9 6 3 1 1 6 7 7 9 10 9 4 3 5 3 6 7 6 5 5 5 6 6 8 9 9 10 11 10 10 10 10 10 11 11 10 9
8 7 9 10 7 7 11 10 6 9 5 1 2 2 5 8 10 3 3 2 4 1 5 6 5 5 5 5 4 4 5 8 8 8 9 9 9 9 10 8 10 9 9 9
6 6 6 6 1 5 6 6 9 4 3 6 6 3 4 6 1 5 3 6 3 5 4 3 5 9 8 4 2 3 4 6 6 7 7 8 10 10 10 10 9 8 6 6
7 5 2 1 2 4 3 4 4 6 6 8 9 9 9 6 3 5 3 1 1 5 7 6 7 3 7 2 2 3 4 4 4 4 4 5 4 5 5 5 5 5 6 7
11 9 7 6 4 2 1 3 5 4 8 8 5 6 5 2 7 7 4 2 2 6 8 8 13 13 8 6 5 5 5 5 5 5 5 4 4 4 4 4 5 6 6 6
15 8 6 7 5 5 3 1 5 4 4 2 5 5 6 4 4 5 7 8 6 5 8 8 9 10 10 9 8 6 5 5 5 6 6 5 6 6 6 7 6 6 6 6
9 12 8 8 6 4 3 3 6 7 5 3 6 1 5 6 5 5 5 6 7 6 8 8 9 10 11 7 7 7 6 4 6 5 5 5 5 5 6 6 7 7 6 7
Wind_Direction
220 243 246 205 206 198 197 192 190 189 177 191 177 174 178 174 163 159 170 168 173 173 175 169 169 173 177 165 153 161 150 143 165 172 139 140 155 156 130 141 132 133 95 63
217 229 237 250 262 206 207 190 142 161 207 186 186 181 164 175 169 175 179 178 179 179 177 173 175 176 180 169 156 157 158 159 162 161 151 150 173 138 109 95 112 105 98 113
219 214 233 240 238 224 202 192 147 168 196 156 176 165 178 177 178 181 183 178 181 184 182 179 176 173 178 172 146 157 162 159 160 158 157 149 150 129 119 112 108 101 108 119
254 163 220 237 197 219 208 194 181 163 162 168 185 200 176 181 178 185 183 181 187 183 182 184 170 172 165 153 155 158 162 166 160 154 156 145 128 121 121 122 123 117 110 114
232 192 254 228 202 191 172 218 184 179 182 182 168 136 175 188 185 182 183 186 185 183 181 175 168 165 159 159 156 159 165 170 169 160 158 151 135 139 137 124 122 132 133 128
327 153 215 214 177 179 142 217 186 158 188 188 128 167 220 181 191 186 186 181 179 178 171 171 173 160 158 164 162 167 170 175 171 163 159 157 150 147 139 139 139 137 136 145
236 286 290 237 197 91 177 221 170 178 186 168 185 180 199 161 184 183 179 180 172 165 176 175 163 160 165 166 177 172 170 170 169 164 165 161 154 149 139 140 131 139 144 158
188 229 97 348 301 104 278 279 183 190 176 176 176 186 174 166 175 175 176 167 167 171 173 170 167 164 165 177 174 166 162 170 171 170 172 158 158 155 150 138 145 155 149 158
322 350 309 293 52 339 352 296 233 181 183 174 159 172 169 160 161 169 168 170 172 174 165 168 171 174 172 176 167 169 160 170 172 171 170 164 160 160 149 156 149 165 165 175
333 348 324 354 7 8 6 348 335 264 166 161 169 170 166 153 159 165 169 166 170 163 164 169 176 180 182 162 168 169 165 169 169 167 162 166 169 168 167 170 162 159 171 185
267 331 328 2 4 1 349 352 350 347 353 170 160 176 161 159 155 166 165 165 165 169 171 177 175 176 168 167 167 171 164 167 171 173 174 170 178 177 181 190 182 172 180 176
290 322 285 305 328 333 344 347 349 348 2 40 42 200 167 164 163 159 162 164 168 173 172 172 174 173 168 171 170 168 165 167 171 169 175 176 171 152 33 213 180 174 171 168
250 260 284 298 314 327 332 344 343 340 329 24 47 28 6 207 166 163 166 167 170 174 176 169 173 174 176 175 171 174 172 166 166 168 173 170 176 179 185 7 148 207 186 191
209 280 290 312 327 328 341 342 336 326 350 29 33 32 23 12 210 159 168 172 172 170 170 170 173 180 179 176 176 176 170 164 168 174 176 176 180 185 183 187 195 207 195 214
214 198 272 313 313 321 334 348 341 352 355 12 19 10 23 9 348 177 168 167 166 167 170 171 177 184 177 177 176 174 164 173 172 175 178 177 176 179 184 185 193 174 132 130
319 204 186 286 296 320 318 347 331 336 353 8 8 8 3 358 349 291 157 160 157 171 174 175 182 181 176 178 178 179 182 173 171 173 172 177 179 180 181 187 189 195 193 195
334 314 194 187 281 316 304 326 287 337 340 13 349 2 15 3 332 289 161 163 167 168 173 174 188 176 178 180 179 184 183 169 171 170 180 183 183 188 189 188 192 197 202 187
279 263 280 171 228 259 268 287 314 324 333 0 352 5 55 107 248 285 281 135 109 102 166 184 179 175 180 182 184 179 179 170 178 182 179 189 191 189 191 191 195 197 197 187
286 284 282 271 209 239 249 255 275 261 0 24 352 9 28 287 314 338 323 102 131 124 176 146 157 163 180 185 179 180 176 175 185 191 191 182 184 190 191 195 195 198 192 184
283 279 270 271 231 217 226 216 250 271 48 22 326 349 12 330 313 313 339 336 25 155 139 151 114 120 145 169 173 182 174 182 183 191 186 186 188 194 197 189 197 198 194 190
266 264 274 275 222 203 209 215 221 224 320 356 307 343 348 310 288 282 302 309 17 26 120 132 116 114 105 118 154 157 167 175 178 182 189 193 189 197 197 194 199 201 202 194
255 245 259 282 238 207 193 185 221 236 195 322 55 76 8 327 310 253 50 107 272 137 98 102 87 68 94 117 139 149 160 176 184 182 190 193 196 200 202 192 197 197 196 193
254 222 239 273 320 127 103 117 127 123 195 158 136 124 121 214 343 353 69 12 3 40 52 59 120 122 115 107 123 142 168 166 178 186 192 194 199 197 202 202 200 187 175 168
357 348 294 313 38 67 48 65 62 119 166 220 161 155 144 117 46 37 342 336 64 77 59 351 0 35 101 124 174 137 125 146 160 181 178 171 184 189 188 169 147 138 136 141
8 11 10 39 56 33 2 97 86 70 154 159 155 136 162 225 133 164 173 181 156 88 70 30 38 22 32 49 46 67 82 89 98 98 90 95 95 92 93 102 116 133 133 132
14 11 13 20 11 353 343 175 108 63 6 134 141 158 143 159 143 130 148 144 107 102 95 81 74 63 38 14 21 35 62 81 83 82 91 84 86 83 84 84 81 83 98 112
354 2 9 24 25 11 30 19 76 77 21 234 117 96 148 121 112 125 107 85 95 92 84 79 65 62 78 29 5 20 6 21 36 68 70 86 86 95 100 103 107 107 106 113